www.pogodaiklimat.ru

Погода и климат >> Архив погоды >> Россия >> Якутия >> Мыс Кигилях


ПОГОДА на Мысе Кигилях

  • Прогноз погоды на Мысе Кигилях
  • Монитор погоды на Мысе Кигилях

АРХИВ ПОГОДЫ на Мысе Кигилях

Время (UTC), дата Ветер
(напр.,м/с)
 
Видим.   Явления Облачность Т
(С)
Тd
(С)
f
(%)
Тe
(С)
Тes
(С)
Комфортность P
(гПа)
Po
(гПа)
Тmin
(С)
Tmax
(С)
R
(мм)
R24
(мм)
S
(см)
12 18.05 СЗ 2 4000 м слаб. ливневой снег 10/10 300 м
[Cb cap]
-12.0 -13.3 90 -17 -17 1024.9 1021.6 -7.9 0.4
15 18.05 З 2 20 км {ливн. осадки} 10/10 300 м
[Cb cap]
-12.0 -13.3 90 -17 -17 1024.2 1020.9
18 18.05 штиль 0 20 км {ливн. осадки} 10/6 300 м
[Sc Ci fib]
-12.3 -13.6 90 -12 -12 1023.1 1019.8
21 18.05 штиль 0 4000 м 10/10 300 м
[]
-11.4 -12.7 90
00 19.05 штиль 0 20 км {ливн. осадки} 10/0
[Ac und]
-6.5 -10.1 76 -7 -5 1021.2 1018.0 -12.3 0.0 17
03 19.05 ЮЗ 1 20 км 10/0
[Ac und]
-5.9 -9.8 74 -8 -5 1020.1 1016.9
06 19.05 штиль 0 20 км 10/0
[Ac und]
-7.0 -9.5 82 -8 -5 1018.9 1015.7
09 19.05 ЮЗ 1 4000 м слаб. ливневой снег 10/10 300 м
[Cb cap]
-7.4 -9.5 85 -10 -10 1017.5 1014.3
12 19.05 ЮЗ 2 20 км {ливн. осадки} 10/10 300 м
[Sc]
-7.8 -9.6 87 -12 -12 1016.2 1013.0 -5.9 0.2
15 19.05 ЮЗ 2 20 км 10/10 300 м
[Sc]
-8.1 -9.5 90 -13 -13 1014.3 1011.1
18 19.05 СЗ 4 20 км 10/10 300 м
[Sc]
-11.5 -12.8 90 -19 -19 1012.8 1009.5
21 19.05 ЮЗ 4 500 м туман [диам. изморози 0 мм] ?/? -13.4 -13.4 100 -21 -21 1011.5 1008.2
00 20.05 ЮЗ 5 20 км {туман} 8/0
[Ci fib]
-12.1 -13.4 90 -20 -17 1010.6 1007.3 -13.4 17
03 20.05 ЮЗ 9-10
{11}
4000 м метель 10/10 300 м
[Sc]
-6.9 -8.2 90 -17 -17 1009.6 1006.4
06 20.05 ЮЗ 8-10
{12}
4000 м слаб. ливневой снег {метель} 10/10 300 м
[Cb cap]
-6.6 -9.4 80 -16 -16 1009.8 1006.6
09 20.05 ЮЗ 8-10
{12}
20 км позёмок {ливн. осадки} 10/10 300 м
[Cb cap]
-7.4 -9.1 88 -17 -17 1010.5 1007.3
12 20.05 ЮЗ 10-12
{14}
4000 м метель {ливн. осадки} 10/0
[Ac und]
-9.8 -10.6 94 -21 -21 1011.2 1008.0 -6.6 0.2
15 20.05 Ю 12-15
{16}
4000 м метель 10/4 300 м
[Sc Ac trans Ci fib]
-11.2 -12.5 90 -23 -23 1011.7 1008.4
18 20.05 Ю 11-15
{17}
4000 м метель 10/0
[Cs]
-11.9 -13.2 90 -23 -23 1012.3 1009.0
21 20.05 Ю 9-13
{15}
20 км позёмок 10/0
[Cs]
-11.2 -12.5 90 -22 -21 1012.5 1009.2
00 21.05 Ю 8-11
{13}
20 км позёмок 8/0
[Ac trans Ci fib]
-9.1 -11.6 82 -19 -18 1012.4 1009.2 -11.9 17
03 21.05 Ю 12-14
{17}
4000 м метель 10/0
[Ac und]
-8.0 -9.8 87 -19 -19 1012.9 1009.7
06 21.05 ЮЗ 11-13
{16}
4000 м метель 10/10 300 м
[Sc]
-6.5 -8.1 88 -17 -17 1013.8 1010.6
09 21.05 ЮЗ 7
{13}
20 км позёмок 9/3 300 м
[Sc Ac trans Ci sp]
-6.5 -7.7 91 -15 -15 1015.0 1011.8
12 21.05 Ю 4 20 км {метель} 9/9 300 м
[Sc]
-6.7 -7.6 93 -13 -13 1015.8 1012.6 -6.3
15 21.05 ЮЗ 2 20 км 3/3 300 м
[Sc]
-10.4 -11.7 90 -15 -15 1016.7 1013.4
18 21.05 ЮВ 1 20 км 4/0
[Ac trans]
-10.7 -12.0 90 -13 -12 1017.2 1013.9
21 21.05 В 2 50 км ясно -8.9 -10.4 89 -13 -10 1017.0 1013.7
00 22.05 В 5 50 км 6/0
[Ci fib]
-6.5 -9.7 78 -14 -11 1016.3 1013.1 -10.7 17
03 22.05 В 5 50 км 4/0
[Ci fib]
-1.6 -5.3 76 -8 -4 1015.5 1012.4
06 22.05 В 6 50 км ясно -1.8 -3.6 87 -9 -7 1014.8 1011.7
09 22.05 В 5 50 км ясно -0.7 -2.2 90 -7 -6 1014.6 1011.5
12 22.05 В 4 50 км ясно -2.4 -4.0 89 -8 -8 1014.4 1011.3 -0.7
15 22.05 В 3 50 км ясно -5.1 -6.5 90 -11 -11 1013.3 1010.1
18 22.05 В 5 50 км ясно -7.8 -9.2 90 -15 -15 1012.3 1009.1
21 22.05 В 6 50 км ясно -7.4 -9.5 85 -16 -14 1010.8 1007.6
00 23.05 В 11-14
{17}
50 км позёмок 6/0
[Ac trans]
-5.9 -7.4 89 -16 -16 1009.6 1006.4 -7.8 16
03 23.05 В 13-16
{18}
4000 м метель 9/8 300 м
[Sc Ac trans]
-4.3 -5.5 91 -15 -15 1008.0 1004.9
06 23.05 В 12-15
{19}
4000 м метель 9/0
[Ac trans Ci fib]
-3.5 -4.6 92 -14 -14 1008.9 1005.8
09 23.05 В 13-16
{18}
4000 м метель 8/0
[Ac trans Ci fib]
-3.7 -4.8 92 -14 -14 1009.7 1006.6
12 23.05 В 12-15
{18}
4000 м метель 10/0
[Ac und]
-4.7 -6.0 91 -15 -15 1009.8 1006.6 -3.3
15 23.05 СВ 13-16
{19}
4000 м метель 10/0
[Ac und]
-5.3 -6.3 93 -16 -16 1009.1 1005.9
18 23.05 СВ 12-15
{18}
4000 м метель 10/0
[Ac und]
-6.1 -7.6 89 -17 -17 1008.2 1005.0
21 23.05 СВ 16-19
{22}
2000 м метель 10/10 300 м
[Sc]
-5.7 -6.8 92 -18 -18 1007.0 1003.8
00 24.05 СВ 16-20
{22}
2000 м слаб. снег {метель} 10/0 300 м
[As op]
-4.0 -4.5 96 -15 -15 1005.7 1002.6 -6.3 0.2 16
03 24.05 СВ 17-20
{23}
1000 м слаб. снег {метель} 10/0 300 м
[As op]
-4.3 -4.9 96 -16 -16 1004.4 1001.3
06 24.05 СВ 18-22
{24}
1000 м слаб. снег {метель} 10/0 300 м
[As op]
-4.4 -5.0 96 -16 -16 1003.7 1000.6
09 24.05 СВ 16-20
{23}
4000 м слаб. снег {метель} 10/0 300 м
[As op]
-2.9 -3.6 95 -14 -14 1003.9 1000.8
12 24.05 СВ 14-17
{22}
10 км слаб. переохл. дождь (гололёд) [диам. гололёда 0 мм] 10/0 300 м
[As op]
-2.3 -2.9 96 -13 -13 1003.7 1000.6 -2.3 4
15 24.05 СВ 12-15
{17}
4000 м слаб. переохл. дождь (гололёд) [диам. гололёда 0 мм] 10/0 300 м
[As op]
-1.3 -2.1 94 -11 -11 1003.4 1000.3
18 24.05 СВ 12-15
{15}
4000 м слаб. переохл. дождь (гололёд) [диам. гололёда 0 мм] 10/0 300 м
[As op]
-0.3 -0.9 96 -9 -9 1003.0 999.9
21 24.05 СВ 12-15
{16}
4000 м слаб. переохл. дождь (гололёд) 10/0 300 м
[As op]
-0.1 -0.7 96 -9 -9 1002.9 999.8
00 25.05 В 5
{15}
500 м туман {дождь} ?/? +0.2 -0.1 98 -6 -6 1003.6 1000.5 -2.3 3 15
03 25.05 ЮВ 5 500 м туман ?/? +0.1 -0.2 98 -6 -6 1005.1 1002.0
06 25.05 ЮВ 3 20 км {туман} 10/10 300 м
[Sc]
0.0 -1.2 92 -5 -5 1006.4 1003.3

 

Местоположение метеостанции Мыс Кигилях (Якутия, Россия): широта 73.33 долгота 139.80 высота над уровнем моря 25 м.

В архиве по умолчанию представлена погода на Мысе Кигилях за последнюю неделю. Архивные данные за месяц целиком и за предыдущие месяцы, начиная с января 2011 года, Вы можете получить, выбрав интересующий диапазон дат из раскрывающегося списка и нажав кнопку "Ввод!".


*Определитесь, кто Вы:
робот инопланетянин человек

Внимание! Время в таблицах - всемирное. Для получения местного времени необходимо прибавить поправку, которая равна 10 ч.

Смотрите также архив погоды в соседних городах и на ближайших метеорологических станциях:

Погода на Проливе Санникова (Якутия, Россия) (152 км)
Погода на Острове Котельном (Якутия, Россия) (303 км)
Погода в Юбилейной (Якутия, Россия) (310 км)
Погода на Мысе Быков (Якутия, Россия) (384 км)
Погода в Усть-Куйге (Якутия, Россия) (398 км)
Погода в Чокурдахе (Якутия, Россия) (408 км)
Погода в Тикси (Якутия, Россия) (413 км)
Погода в Депутатском (Якутия, Россия) (439 км)
Погода на Столб Острове (Якутия, Россия) (453 км)
Погода на Острове Жохова (Якутия, Россия) (492 км)

Пояснения к столбцам:

Ветер - указаны скорость ветра в м/с - средняя за 10 мин, порывы в срок и между сроками (в фигурных скобках) и направление, откуда дует ветер: С - северный, СВ - северо-восточный, В - восточный, ЮВ - юго-восточный, Ю - южный, ЮЗ - юго-западный, З - западный, СЗ - северо-западный.
Видимость - горизонтальная дальность видимости в метрах или километрах. При видимости от 1 до 10 км при отсутствии осадков обычно наблюдается дымка, при ухудшении видимости до 1 км и менее - туман. В сухую погоду видимость может ухудшаться дымом, пылью или мглою.
Явления - указаны атмосферные явления, наблюдавшиеся в срок или в последний час перед сроком; фигурными скобками обозначены явления, наблюдавшиеся между сроками (за 1-3 часа до срока); квадратными скобками обозначены град или гололедные отложения с указанием их диаметра в мм.
Облачность - указаны через наклонную черту общая и нижняя облачность в баллах и высота нижней границы облаков в метрах; квадратными скобками обозначены формы облаков: Ci - перистые, Cs - перисто-слоистые, Cc - перисто-кучевые, Ac - высококучевые, As - высокослоистые, Sc - слоисто-кучевые, Ns - слоисто-дождевые, Cu - кучевые, Cb - кучево-дождевые. Подробнее классификацию облаков см. в Атласе облаков (PDF).
T - Температура воздуха - температура, измеренная на высоте 2 м над землей.
Td - Температура точки росы - температура, при понижении до которой содержащийся в воздухе водяной пар достигнет насыщения.
f - Относительная влажность воздуха - влажноcть воздуха, измеренная на высоте 2 м над землей.
Te - Эффективная температура - температура, которую ощущает одетый по сезону человек в тени. Характеристика душности погоды. При расчете учитывается влияние влажности воздуха и скорости ветра на теплоощущения человека.
Tes - Эффективная температура на солнце - температура, которую ощущает человек, с поправкой на солнечный нагрев. Характеристика знойности погоды. Зависит от высоты солнца над горизонтом, облачности и скорости ветра. Ночью, в пасмурную погоду, а также при ветре 12 м/с и более поправка равна нулю.
P - Атмосферное давление - приведенное к уровню моря атмосферное давление.
Po - Атмосферное давление - измеренное на уровне метеостанции атмосферное давление.
Tmin - Минимальная температура - минимум температуры воздуха на высоте 2 м над землей.
Tmax - Максимальная температура - максимум температуры воздуха на высоте 2 м над землей.
R - Количество осадков - Количество выпавших осадков за период времени, мм. При наведении курсора мыши на число - период времени, за который выпало указанное количество осадков.
R24 - Количество осадков - Количество выпавших осадков за 24 часа, мм.
S - Снежный покров - Высота снежного покрова, см. При наведении курсора мыши на число - состояние снежного покрова и степень покрытия местности в баллах.